Temperature
10 10 11 11 11 11 11 11 11 11 11 11 11 11 11 11 11 11 11 11 11 11 11 11 11 11 11 11 11 11 11 11 11 11 10 10 11 11 11 11 11 11 11
10 10 10 11 11 11 11 11 11 11 11 11 11 11 11 11 11 11 11 11 11 11 11 11 11 11 11 11 11 11 11 11 11 10 10 9 10 10 10 11 11 11 11
9 9 10 10 11 11 11 11 11 11 11 10 10 10 10 10 10 10 10 10 10 10 10 10 10 10 10 10 11 11 10 10 10 10 10 10 10 9 10 10 10 10 10
9 9 9 10 10 10 10 11 10 10 10 10 10 10 10 10 10 10 10 10 10 10 10 10 10 10 10 10 10 10 10 10 10 10 10 10 10 10 9 9 10 10 10
8 8 9 9 10 10 10 10 10 10 10 10 10 10 10 9 9 9 9 9 9 10 9 9 9 10 10 10 10 10 10 10 10 10 10 10 10 10 10 9 9 9 10
7 7 8 8 9 9 9 9 10 10 10 10 9 9 9 9 9 9 9 9 9 9 9 9 9 9 9 9 9 10 10 9 9 9 10 10 10 10 10 9 9 9 9
6 6 7 7 8 8 9 9 9 9 9 9 9 9 9 9 9 9 9 9 9 9 9 9 9 9 9 9 9 9 9 9 9 9 9 9 9 9 10 9 9 8 8
5 5 6 6 7 8 8 8 8 8 9 9 9 9 8 8 8 8 8 8 8 8 8 8 8 8 8 8 8 8 8 8 8 9 9 9 9 9 9 9 9 8 8
4 4 5 6 6 7 7 7 8 7 8 8 8 8 8 8 8 8 8 8 8 8 8 8 8 8 8 8 8 8 8 8 8 8 8 8 8 8 8 8 8 8 7
4 4 4 5 6 6 6 7 7 7 7 7 7 8 7 7 7 7 7 7 7 7 7 7 7 7 7 7 7 7 7 7 7 7 7 8 8 8 8 8 8 8 7
3 3 4 4 5 5 5 6 6 6 6 7 7 7 7 7 7 7 7 7 7 7 7 7 7 7 7 7 7 6 7 7 7 7 7 7 7 7 7 7 7 7 7
2 2 3 3 4 4 5 5 5 5 6 6 6 6 6 6 6 6 6 6 6 6 6 6 6 6 6 6 6 6 6 6 6 6 6 6 7 6 7 7 7 6 6
2 2 2 3 3 4 4 4 5 5 5 5 5 5 5 6 6 6 6 6 6 6 6 6 6 6 6 6 6 6 6 6 6 6 6 6 6 6 6 6 6 6 6
1 1 2 2 2 3 3 4 4 4 5 5 5 5 5 5 5 6 6 5 5 5 5 5 5 5 5 5 5 5 5 5 5 5 5 5 5 5 5 5 5 5 5
0 1 1 1 2 2 3 3 3 4 4 4 4 4 4 4 5 5 5 5 5 5 5 5 5 5 5 5 5 5 5 5 5 5 4 4 5 5 5 5 5 5 4
-0 -0 0 1 1 2 2 2 2 3 3 3 4 4 4 4 4 4 4 4 4 4 4 4 4 4 4 4 4 4 4 4 4 4 4 4 4 4 4 4 4 4 4
-1 -1 -0 0 1 1 1 2 2 2 2 2 3 3 3 3 3 4 4 4 4 4 4 3 4 3 3 3 3 4 3 3 3 3 3 3 3 3 3 3 3 3 3
-2 -1 -1 -0 0 1 1 1 1 2 2 2 2 2 3 3 3 3 3 3 3 3 3 3 3 3 3 3 3 3 3 3 3 3 3 3 2 2 2 2 2 2 2
-2 -2 -1 -1 -0 0 0 1 1 1 1 1 2 2 2 2 2 2 2 2 2 2 2 2 2 2 2 2 2 2 2 2 2 2 2 2 2 2 2 2 2 1 1
-2 -2 -1 -1 -1 -0 -0 0 0 1 1 1 1 1 1 2 2 2 2 2 2 2 2 2 2 2 2 2 2 2 1 1 1 1 1 1 1 1 1 1 1 1 1
-3 -2 -2 -1 -1 -1 -1 -0 -0 0 0 0 1 1 1 1 1 1 1 1 1 1 1 1 1 1 1 1 1 1 1 1 1 0 0 0 0 0 0 0 0 0 0
-3 -2 -2 -2 -2 -2 -1 -1 -1 -1 -1 -0 -0 0 0 0 0 0 0 1 1 1 1 1 0 0 0 0 0 0 0 0 -0 -0 -0 -0 -0 -0 -0 -0 -0 -0 -0
-3 -3 -3 -2 -2 -2 -2 -2 -2 -2 -1 -1 -1 -1 -1 -0 -0 -0 -0 -0 -0 -0 -0 -0 -0 -0 -0 -0 -0 -0 -0 -0 -0 -1 -1 -1 -1 -1 -1 -1 -1 -1 -1
-4 -4 -3 -3 -3 -3 -3 -3 -3 -2 -2 -1 -1 -1 -1 -1 -1 -1 -1 -1 -1 -1 -1 -1 -1 -1 -1 -1 -1 -1 -1 -1 -1 -1 -1 -1 -1 -1 -1 -1 -1 -1 -1
-5 -5 -4 -4 -4 -4 -3 -3 -3 -3 -2 -2 -2 -2 -2 -2 -2 -2 -2 -1 -1 -1 -1 -1 -1 -1 -1 -1 -1 -1 -1 -2 -2 -2 -2 -2 -2 -2 -2 -2 -2 -2 -2
-5 -5 -5 -4 -4 -4 -4 -4 -3 -3 -3 -3 -3 -3 -3 -3 -3 -2 -2 -2 -2 -2 -2 -2 -2 -2 -2 -2 -2 -2 -2 -2 -2 -2 -2 -2 -2 -2 -2 -2 -2 -3 -3
Wind_Speed
9 8 8 8 8 8 8 9 8 8 7 6 6 5 5 5 4 4 5 6 6 7 7 6 6 6 6 6 7 6 6 5 5 4 3 2 2 2 2 2 2 2 3
8 7 7 8 9 9 9 9 9 9 9 7 6 5 5 4 5 4 5 6 6 7 7 7 6 6 6 7 7 7 5 5 5 5 4 3 3 2 2 3 3 3 3
8 7 7 8 9 9 10 9 10 9 9 8 6 5 4 3 4 5 5 5 6 7 6 7 6 6 6 6 7 7 7 6 6 5 4 4 5 4 3 3 3 3 3
7 7 7 7 8 8 8 9 9 9 9 9 8 9 7 6 7 6 5 5 6 7 7 6 6 6 5 6 7 7 6 8 7 5 4 3 2 3 3 3 3 3 3
6 5 5 6 6 6 7 8 8 9 9 10 10 10 8 7 6 6 6 6 5 6 6 7 6 6 5 6 6 6 6 6 7 6 4 3 2 3 3 3 4 3 3
3 3 2 3 3 4 5 6 8 8 9 10 10 11 10 9 8 7 7 6 5 5 6 6 6 6 5 6 6 5 6 6 6 5 5 5 4 4 4 4 5 4 3
2 2 2 2 2 3 4 6 7 8 8 9 10 10 10 10 9 8 8 7 5 5 6 6 6 5 5 5 5 5 5 6 6 5 4 4 4 3 3 3 3 3 2
1 1 1 1 2 2 3 5 7 7 8 9 9 9 9 8 7 8 7 7 6 5 6 6 5 5 5 5 5 4 4 4 4 4 4 3 3 3 3 3 3 3 2
1 1 1 0 1 2 2 3 5 6 7 8 8 8 8 8 7 7 7 6 5 5 6 6 5 5 4 5 5 4 4 4 3 3 3 2 2 2 2 3 4 4 3
3 2 1 1 1 1 1 2 3 4 5 7 7 6 7 8 7 7 7 7 7 6 6 6 6 5 5 5 4 4 4 4 3 3 3 3 1 1 1 2 2 2 3
3 2 2 1 2 2 2 1 1 2 3 5 6 6 6 7 7 7 7 7 6 7 7 6 6 6 5 5 5 5 5 4 4 3 3 3 3 2 2 1 1 1 2
4 2 2 2 2 2 1 1 1 1 2 4 5 5 6 6 7 7 7 7 7 6 6 6 6 6 6 6 6 6 5 5 5 4 4 4 3 3 2 2 2 1 1
5 3 2 2 2 1 1 0 1 1 2 3 4 5 6 6 7 7 7 7 7 6 6 6 6 6 6 5 5 5 5 5 5 5 5 4 4 3 2 2 2 1 1
5 4 3 2 2 2 1 1 1 1 1 3 4 4 5 6 6 7 7 7 7 7 7 6 6 5 5 5 5 5 5 5 4 4 3 3 4 4 3 3 2 2 2
6 6 4 3 3 2 2 2 2 1 2 3 3 3 4 5 6 6 6 6 7 7 6 6 6 5 5 5 6 5 5 5 4 3 3 3 3 3 3 2 3 2 2
7 7 5 4 4 3 3 2 2 2 2 2 3 3 3 4 5 5 6 6 6 6 6 6 6 5 4 5 6 6 5 5 5 4 3 2 3 4 3 3 2 3 3
7 8 7 6 5 4 3 2 2 1 2 2 2 3 3 3 4 5 6 6 6 6 6 6 5 5 6 7 7 6 4 4 4 4 3 3 3 3 3 3 2 1 1
9 9 8 7 6 4 3 2 1 1 2 2 2 3 3 3 3 4 5 5 5 5 5 5 5 5 5 7 7 7 4 3 3 3 4 4 4 3 3 2 2 1 2
9 9 8 7 5 4 3 2 1 2 2 2 2 3 3 4 4 4 4 5 5 5 4 4 5 5 5 7 7 6 4 3 3 3 3 4 4 4 4 3 3 2 2
8 8 7 6 4 3 2 2 2 2 2 2 2 2 3 4 4 4 4 4 4 5 4 4 4 5 5 6 7 7 4 4 3 2 3 4 4 5 5 4 4 4 3
8 7 6 4 4 2 1 2 1 2 2 1 2 2 3 3 4 4 3 4 5 5 4 4 3 4 5 6 7 7 5 5 4 3 3 3 5 5 5 4 4 4 3
8 7 5 4 3 1 1 1 1 1 1 2 3 3 3 3 3 4 3 4 5 5 4 4 3 3 4 5 6 7 6 5 5 4 4 4 5 5 5 4 4 4 3
7 6 5 4 3 2 1 0 1 1 2 3 3 3 3 2 3 4 4 4 4 4 4 4 3 3 3 4 6 7 7 6 5 4 4 4 4 5 4 4 5 5 4
6 5 4 4 4 3 2 1 0 1 3 3 3 3 3 2 2 3 3 4 4 4 4 4 4 3 3 4 4 5 5 6 4 4 4 5 5 4 4 4 4 4 4
6 5 4 4 4 3 3 2 1 2 3 3 2 2 2 2 2 2 2 2 3 4 4 4 4 4 4 4 5 5 5 5 5 4 3 4 4 4 4 3 3 3 3
6 5 5 5 4 4 3 3 2 1 2 2 2 2 2 2 2 2 2 2 2 2 2 2 3 3 4 5 6 6 7 7 7 5 4 5 5 5 5 5 4 4 4
Wind_Direction
233 224 214 207 204 203 200 196 193 192 186 184 186 188 195 195 198 198 197 198 197 196 197 191 190 191 189 185 183 178 177 176 167 157 152 144 162 185 193 194 190 184 184
226 216 206 199 198 199 199 197 195 190 187 187 186 190 191 198 199 192 194 197 196 196 199 193 191 190 189 186 185 179 178 181 184 181 176 185 190 198 211 202 200 199 179
225 215 202 200 196 197 197 196 195 192 190 186 179 169 171 184 194 196 199 201 198 196 198 197 193 191 191 191 189 186 186 187 193 201 201 197 203 180 181 202 204 200 193
225 216 202 197 198 198 194 194 193 191 189 185 184 182 184 191 202 201 199 196 194 195 195 195 193 191 191 192 192 192 196 195 195 202 223 242 198 184 172 179 198 203 204
217 209 203 200 200 196 192 193 191 190 189 188 190 192 197 198 193 191 193 195 193 191 189 190 190 193 194 193 190 188 195 201 203 200 195 194 201 214 195 189 183 191 210
195 189 184 180 189 186 187 189 189 191 190 192 193 195 195 192 185 187 191 194 191 188 187 189 190 193 194 193 191 190 194 198 203 204 204 198 198 203 204 205 194 194 197
171 167 168 171 173 180 186 189 192 193 191 193 197 199 198 194 192 192 194 193 191 189 190 189 191 191 191 188 185 192 195 196 196 201 205 208 215 203 198 185 190 197 193
101 126 170 183 176 178 186 192 198 198 196 196 198 198 198 197 197 195 194 195 195 193 189 189 187 184 186 184 182 185 190 196 199 203 202 198 202 196 186 179 180 188 200
34 39 44 101 154 158 180 195 202 202 200 198 197 198 197 196 193 191 192 193 193 190 187 185 185 185 185 183 182 184 182 180 186 194 195 201 199 194 193 186 191 193 203
13 18 22 50 90 113 135 173 192 201 200 196 195 196 197 195 190 187 188 187 187 186 183 182 183 186 186 187 188 187 184 182 183 183 183 187 189 186 188 183 198 218 216
7 8 19 46 67 77 96 123 177 186 186 191 193 194 194 192 190 187 188 186 184 184 183 183 183 184 186 189 190 190 184 179 178 176 180 190 187 175 176 166 166 190 209
10 22 40 53 59 57 83 119 148 178 188 189 190 193 190 187 187 186 185 184 184 184 183 184 186 188 188 189 188 186 184 184 184 185 187 193 178 175 182 167 164 186 212
11 16 30 32 35 29 19 180 177 192 199 189 186 189 190 186 188 187 183 183 180 180 181 181 186 188 186 186 188 186 183 184 189 190 191 193 180 179 185 177 176 176 175
4 360 359 358 359 2 349 285 247 231 204 185 183 191 193 189 190 186 182 180 178 179 181 181 181 184 186 186 181 177 177 181 187 188 191 193 186 186 184 179 183 176 170
351 346 344 339 339 339 328 301 259 233 207 182 181 190 191 186 183 181 178 177 178 179 180 178 176 176 183 185 178 177 179 182 181 184 187 185 175 177 182 181 188 183 188
334 334 332 326 317 311 304 293 270 235 211 189 183 183 178 171 169 172 171 171 175 174 175 180 173 172 179 166 169 177 180 184 187 188 183 170 160 151 151 154 171 188 199
328 324 317 311 306 300 290 277 262 223 195 183 173 172 166 158 162 164 164 165 167 168 170 174 173 173 168 155 155 159 174 181 186 185 179 178 170 166 170 160 164 187 236
319 314 310 305 300 295 288 275 241 193 169 165 166 166 157 152 149 157 162 164 162 164 168 171 173 169 164 156 157 156 166 171 181 185 184 187 187 181 171 166 178 213 243
311 307 302 295 291 287 274 241 211 182 172 178 170 168 160 156 154 157 163 164 161 161 165 169 167 169 169 159 160 159 163 167 178 191 195 199 199 181 173 180 188 212 243
319 313 308 302 291 283 250 204 203 189 199 198 177 166 162 163 165 162 158 158 158 160 159 161 169 175 180 170 168 171 174 176 179 187 202 203 205 197 194 203 206 222 239
323 320 316 310 299 279 213 193 200 213 213 174 145 140 146 153 157 154 154 151 152 153 153 156 167 175 177 176 178 181 183 184 187 196 207 209 195 204 207 220 225 225 234
330 331 331 330 327 315 180 179 211 218 159 132 128 129 129 129 134 134 138 143 146 148 154 156 163 174 178 182 182 182 186 190 194 204 210 204 191 201 211 220 218 215 219
335 339 346 352 355 359 47 146 233 170 135 126 124 120 112 118 133 140 144 145 149 154 160 166 172 181 187 184 182 186 186 191 201 206 196 198 197 202 214 212 215 216 220
343 347 359 7 3 6 18 36 72 123 123 123 123 124 124 124 129 140 152 158 164 166 170 174 179 185 193 196 193 189 185 183 191 197 192 197 204 207 212 218 221 227 227
345 351 358 6 5 8 15 18 33 124 122 116 121 132 135 140 140 141 154 168 179 184 183 190 191 191 202 210 201 195 194 195 194 190 201 211 212 212 217 221 223 228 231
353 359 3 6 6 8 11 9 10 84 123 123 130 140 145 146 146 140 109 80 142 144 167 186 197 211 216 203 205 205 201 196 192 199 206 212 216 219 220 223 228 233 235
Height
1476 1477 1479 1480 1483 1485 1487 1490 1492 1495 1497 1499 1501 1503 1506 1508 1509 1511 1513 1515 1517 1519 1521 1523 1525 1527 1530 1532 1534 1536 1539 1541 1544 1546 1547 1549 1550 1550 1551 1552 1553 1554 1555
1472 1473 1474 1476 1478 1480 1483 1486 1488 1491 1493 1496 1498 1501 1503 1505 1506 1508 1510 1512 1514 1516 1518 1520 1522 1524 1526 1529 1531 1533 1535 1538 1541 1543 1545 1547 1549 1548 1549 1550 1551 1552 1553
1467 1468 1470 1471 1473 1476 1478 1481 1484 1487 1490 1493 1495 1497 1499 1501 1503 1504 1506 1508 1510 1512 1514 1516 1519 1521 1523 1525 1527 1530 1532 1534 1537 1539 1542 1543 1544 1545 1546 1547 1548 1549 1550
1463 1464 1465 1467 1469 1472 1475 1477 1480 1483 1486 1489 1491 1493 1495 1496 1499 1501 1503 1505 1507 1509 1511 1513 1515 1517 1520 1522 1524 1526 1529 1531 1533 1535 1537 1539 1540 1542 1543 1544 1545 1546 1547
1459 1460 1462 1464 1466 1469 1471 1474 1477 1480 1482 1485 1487 1490 1492 1494 1496 1498 1500 1502 1504 1506 1508 1510 1512 1514 1516 1518 1521 1523 1525 1527 1530 1531 1533 1535 1537 1538 1540 1541 1542 1543 1544
1456 1457 1459 1461 1463 1465 1467 1470 1473 1475 1478 1481 1483 1485 1488 1490 1493 1495 1496 1499 1500 1502 1504 1506 1509 1511 1513 1515 1517 1519 1521 1523 1526 1528 1530 1532 1533 1535 1536 1537 1538 1539 1540
1454 1455 1456 1458 1459 1461 1464 1466 1469 1471 1474 1476 1479 1481 1484 1486 1489 1491 1493 1495 1497 1499 1501 1503 1505 1507 1509 1511 1513 1516 1518 1520 1522 1524 1526 1528 1530 1532 1533 1534 1534 1536 1537
1452 1453 1454 1455 1457 1458 1460 1462 1465 1467 1469 1472 1474 1477 1480 1483 1485 1488 1490 1492 1494 1496 1498 1500 1502 1504 1507 1508 1510 1512 1514 1516 1518 1520 1522 1524 1526 1528 1529 1531 1532 1533 1534
1451 1452 1452 1453 1455 1456 1457 1459 1461 1463 1465 1468 1471 1473 1476 1479 1481 1484 1486 1488 1490 1492 1495 1497 1499 1501 1503 1505 1507 1509 1511 1513 1515 1517 1518 1521 1522 1524 1526 1527 1529 1530 1531
1450 1450 1451 1451 1453 1454 1455 1457 1458 1460 1462 1464 1467 1470 1472 1475 1478 1480 1482 1484 1487 1489 1491 1494 1496 1498 1500 1502 1504 1505 1507 1509 1511 1513 1515 1517 1519 1521 1522 1524 1525 1526 1527
1450 1450 1450 1450 1451 1452 1453 1455 1456 1457 1459 1461 1463 1466 1469 1471 1474 1476 1479 1481 1483 1486 1488 1490 1493 1495 1497 1499 1500 1502 1504 1506 1508 1509 1511 1513 1515 1517 1519 1520 1521 1523 1524
1450 1450 1449 1449 1450 1451 1452 1453 1454 1455 1457 1458 1461 1463 1465 1468 1470 1472 1475 1478 1480 1483 1485 1487 1489 1491 1494 1495 1497 1499 1501 1502 1504 1506 1508 1510 1512 1513 1515 1516 1518 1519 1521
1450 1449 1449 1449 1449 1450 1450 1451 1452 1453 1455 1456 1458 1460 1462 1464 1466 1469 1472 1474 1477 1479 1482 1484 1486 1488 1490 1492 1494 1496 1497 1499 1501 1503 1505 1506 1508 1509 1511 1512 1514 1515 1516
1450 1449 1448 1448 1448 1448 1449 1449 1450 1451 1452 1454 1455 1457 1458 1460 1463 1465 1468 1470 1473 1476 1478 1480 1483 1485 1487 1489 1490 1492 1494 1496 1498 1499 1501 1503 1504 1505 1507 1508 1510 1512 1513
1449 1448 1448 1447 1447 1447 1447 1448 1448 1449 1450 1451 1452 1454 1456 1457 1459 1462 1464 1467 1470 1472 1475 1477 1479 1481 1484 1485 1487 1489 1491 1493 1494 1496 1498 1500 1501 1502 1504 1505 1507 1508 1510
1449 1448 1447 1446 1446 1445 1445 1445 1445 1446 1447 1448 1449 1451 1453 1454 1456 1458 1461 1464 1466 1469 1472 1474 1476 1478 1480 1482 1484 1486 1488 1490 1491 1493 1494 1496 1497 1499 1501 1502 1504 1505 1506
1448 1447 1445 1444 1443 1443 1443 1443 1443 1444 1445 1446 1447 1448 1450 1451 1453 1455 1457 1460 1463 1466 1468 1471 1473 1475 1477 1479 1481 1483 1485 1486 1488 1490 1491 1493 1494 1496 1497 1499 1500 1502 1503
1447 1445 1444 1443 1442 1441 1441 1441 1441 1441 1442 1443 1444 1446 1447 1449 1451 1453 1455 1457 1460 1463 1465 1468 1470 1472 1474 1476 1479 1480 1482 1483 1485 1487 1489 1491 1492 1493 1494 1496 1497 1498 1499
1446 1443 1441 1440 1439 1439 1439 1439 1439 1439 1440 1441 1442 1444 1445 1447 1449 1451 1453 1455 1458 1460 1462 1465 1467 1469 1472 1474 1476 1478 1479 1481 1483 1484 1486 1488 1489 1490 1492 1493 1494 1494 1496
1443 1440 1438 1437 1436 1436 1436 1436 1436 1437 1438 1439 1440 1442 1443 1445 1447 1449 1451 1453 1455 1458 1460 1462 1465 1467 1469 1472 1474 1476 1477 1478 1480 1482 1483 1485 1486 1488 1489 1490 1491 1491 1492
1440 1438 1435 1434 1433 1433 1433 1433 1434 1435 1436 1437 1438 1440 1441 1443 1445 1447 1449 1451 1453 1455 1457 1460 1462 1464 1466 1469 1471 1473 1474 1476 1477 1478 1480 1482 1483 1485 1486 1487 1487 1488 1489
1437 1435 1433 1432 1431 1431 1431 1431 1432 1433 1434 1435 1436 1437 1439 1441 1443 1445 1447 1449 1451 1453 1455 1457 1459 1461 1463 1465 1467 1470 1471 1473 1474 1475 1477 1479 1480 1481 1482 1483 1484 1485 1485
1436 1434 1432 1430 1430 1430 1429 1429 1430 1431 1432 1433 1434 1436 1437 1439 1441 1443 1445 1447 1449 1450 1452 1454 1456 1458 1460 1462 1464 1466 1468 1470 1471 1472 1474 1475 1477 1478 1479 1479 1480 1481 1481
1435 1433 1431 1429 1429 1428 1428 1428 1428 1429 1430 1431 1432 1434 1436 1437 1439 1441 1443 1445 1446 1448 1450 1452 1453 1455 1458 1459 1461 1462 1464 1466 1467 1469 1470 1472 1473 1474 1475 1476 1476 1476 1477
1435 1433 1431 1429 1428 1428 1427 1427 1427 1428 1428 1429 1431 1432 1434 1436 1437 1439 1441 1443 1444 1446 1448 1449 1451 1452 1454 1455 1457 1459 1460 1462 1464 1465 1466 1468 1469 1470 1470 1471 1472 1472 1472
1435 1433 1431 1430 1429 1428 1427 1427 1427 1427 1427 1428 1429 1431 1432 1434 1436 1437 1439 1440 1442 1444 1446 1447 1449 1450 1451 1452 1453 1455 1457 1459 1460 1462 1462 1463 1464 1465 1466 1466 1467 1467 1467